• Join FlightAware (Why Join?)
  • Login
  • US Flag 
02:14AM EDT


 

Airport Tracker/Info


-or-


 

Live Flight TrackerFlight Track Log ✈ SWA554 ✈ 09-Apr-2013 ✈ KPHX - KMKE

Flight Track Log - Related Links

Times and Time Zones

All times are in EDT time to prevent confusion due to time zone crossing. See the SWA554 flight status page for this flight to view local times or setup timezone preferences in your user account.

Time Position Orientation Groundspeed Altitude Reporting Facility
EDT Latitude Longitude Course Direction KTS MPH feet Rate Location/Type
11:14AM 33.4333 -112.0333 264° West 157 181 2,300  Level Phoenix TRACON
11:15AM 33.4322 -112.0461 264° West 163 188 2,700 1,740 Climbing Albuquerque Center
11:16AM 33.4328 -112.1092 271° West 188 216 4,800 3,000 Climbing Albuquerque Center
11:17AM 33.4517 -112.1842 287° West 223 257 9,000 3,000 Climbing Albuquerque Center
11:18AM 33.5053 -112.1403 34° Northeast 268 308 11,000 1,980 Climbing Albuquerque Center
11:19AM 33.5264 -112.0306 77° East 344 396 13,100 2,460 Climbing Albuquerque Center
11:20AM 33.5514 -111.9139 76° East 363 418 16,200 3,000 Climbing Albuquerque Center
11:21AM 33.5769 -111.7953 75° East 370 426 19,400 3,060 Climbing Albuquerque Center
11:22AM 33.6097 -111.6483 75° East 381 438 22,600 2,700 Climbing Albuquerque Center
11:23AM 33.6350 -111.5233 76° East 389 448 25,000 2,040 Climbing Albuquerque Center
11:24AM 33.6628 -111.3922 76° East 407 468 26,900 1,500 Climbing Albuquerque Center
11:25AM 33.6925 -111.2558 75° East 423 487 28,200 1,200 Climbing Albuquerque Center
11:26AM 33.7419 -111.1192 66° East 447 514 29,400 1,260 Climbing Albuquerque Center
11:27AM 33.8031 -110.9456 67° East 472 543 30,900 1,500 Climbing Albuquerque Center
11:28AM 33.8556 -110.7978 67° East 481 554 32,500 1,500 Climbing Albuquerque Center
11:29AM 33.9067 -110.6508 67° East 480 552 34,100 1,320 Climbing Albuquerque Center
11:30AM 33.9578 -110.5033 67° East 479 551 35,300 1,020 Climbing Albuquerque Center
11:31AM 34.0186 -110.3300 67° East 488 562 36,300 780 Climbing Albuquerque Center
11:32AM 34.0711 -110.1781 67° East 493 567 37,000 300 Climbing Albuquerque Center
11:33AM 34.1278 -110.0153 67° East 499 574 37,000  Level Albuquerque Center
11:34AM 34.1783 -109.8700 67° East 496 571 37,000  Level Albuquerque Center
11:35AM 34.2358 -109.6975 68° East 496 571 37,000  Level Albuquerque Center
11:36AM 34.2858 -109.5531 67° East 492 566 37,000  Level Albuquerque Center
11:37AM 34.3433 -109.3822 68° East 492 566 37,000  Level Albuquerque Center
11:38AM 34.3925 -109.2369 68° East 490 564 37,000  Level Albuquerque Center
11:39AM 34.4467 -109.0667 69° East 487 560 37,000  Level Albuquerque Center
11:40AM 34.4872 -108.9197 71° East 483 556 37,000  Level Albuquerque Center
11:41AM 34.5353 -108.7464 71° East 485 558 37,000  Level Albuquerque Center
11:43AM 34.5756 -108.5969 72° East 486 559 37,000  Level Albuquerque Center
11:44AM 34.6228 -108.4214 72° East 490 564 37,000  Level Albuquerque Center
11:45AM 34.6639 -108.2706 72° East 491 565 37,000  Level Albuquerque Center
11:46AM 34.7122 -108.0944 71° East 493 567 37,000  Level Albuquerque Center
11:47AM 34.7506 -107.9447 73° East 491 565 37,000  Level Albuquerque Center
11:48AM 34.7956 -107.7672 73° East 491 565 37,000  Level Albuquerque Center
11:49AM 34.8378 -107.6119 72° East 498 573 37,000  Level Albuquerque Center
11:50AM 34.8817 -107.4550 71° East 513 590 37,000  Level Albuquerque Center
11:51AM 34.9272 -107.2778 73° East 494 568 37,000  Level Albuquerque Center
11:52AM 34.9672 -107.1244 72° East 497 572 37,000  Level Albuquerque Center
11:53AM 35.0111 -106.9486 73° East 489 563 37,000  Level Albuquerque Center
11:54AM 35.0486 -106.8017 73° East 479 551 37,000  Level Albuquerque Center
11:55AM 35.1131 -106.6325 65° Northeast 488 562 37,000  Level Albuquerque Center
11:56AM 35.1728 -106.4839 64° Northeast 494 568 37,000  Level Albuquerque Center
11:57AM 35.2278 -106.3336 66° East 486 559 37,000  Level Albuquerque Center
11:58AM 35.2850 -106.1858 65° Northeast 478 550 37,000  Level Albuquerque Center
11:59AM 35.3672 -106.0489 54° Northeast 492 566 37,000  Level Albuquerque Center
12:00PM 35.4625 -105.8872 54° Northeast 496 571 37,000  Level Albuquerque Center
12:01PM 35.5414 -105.7464 55° Northeast 497 572 37,000  Level Albuquerque Center
12:02PM 35.6228 -105.6011 55° Northeast 504 580 37,000  Level Albuquerque Center
12:03PM 35.7050 -105.4553 55° Northeast 512 589 37,000  Level Albuquerque Center
12:04PM 35.7875 -105.3092 55° Northeast 514 592 37,000  Level Albuquerque Center
12:05PM 35.8714 -105.1586 55° Northeast 522 601 37,000  Level Albuquerque Center
12:06PM 35.9583 -105.0061 55° Northeast 532 612 37,000  Level Albuquerque Center
12:07PM 36.0406 -104.8569 56° Northeast 523 602 37,000  Level Albuquerque Center
12:08PM 36.1231 -104.7086 55° Northeast 519 597 37,000  Level Albuquerque Center
12:09PM 36.2053 -104.5594 56° Northeast 517 595 37,000  Level Albuquerque Center
12:10PM 36.2986 -104.3886 56° Northeast 509 586 37,000  Level Albuquerque Center
12:11PM 36.3800 -104.2394 56° Northeast 514 592 37,000  Level Albuquerque Center
12:12PM 36.4628 -104.0911 55° Northeast 516 594 37,000  Level Albuquerque Center
12:13PM 36.5456 -103.9428 55° Northeast 517 595 37,000  Level Albuquerque Center
12:15PM 36.6283 -103.7886 56° Northeast 525 604 37,000  Level Albuquerque Center
12:16PM 36.7153 -103.6247 56° Northeast 529 609 37,000  Level Albuquerque Center
12:17PM 36.7933 -103.4792 56° Northeast 530 610 37,000  Level Albuquerque Center
12:18PM 36.8833 -103.3086 57° Northeast 529 609 37,000  Level Albuquerque Center
12:19PM 36.9614 -103.1625 56° Northeast 529 609 37,000  Level Albuquerque Center
12:20PM 37.0511 -102.9922 57° Northeast 528 608 37,000  Level Albuquerque Center
12:21PM 37.1269 -102.8450 57° Northeast 527 606 37,000  Level Albuquerque Center
12:22PM 37.2194 -102.6739 56° Northeast 530 610 37,000  Level Albuquerque Center
12:23PM 37.2950 -102.5261 57° Northeast 527 606 37,000  Level Albuquerque Center
12:24PM 37.3844 -102.3536 57° Northeast 528 608 37,000  Level Albuquerque Center
12:25PM 37.4592 -102.2053 58° Northeast 530 610 37,000  Level Albuquerque Center
12:26PM 37.5489 -102.0308 57° Northeast 531 611 37,000  Level Albuquerque Center
12:28PM 37.6764 -101.7767 58° Northeast 535 616 37,000  Level Kansas City Center
12:29PM 37.7656 -101.5992 58° Northeast 535 616 37,000  Level Kansas City Center
12:30PM 37.8394 -101.4514 58° Northeast 525 604 37,000  Level Kansas City Center
12:31PM 37.9122 -101.3069 57° Northeast 510 587 37,000  Level Kansas City Center
12:32PM 37.9956 -101.1397 58° Northeast 501 577 37,000  Level Kansas City Center
12:33PM 38.0664 -100.9981 58° Northeast 496 571 37,000  Level Kansas City Center
12:34PM 38.1469 -100.8331 58° Northeast 491 565 37,000  Level Kansas City Center
12:35PM 38.2167 -100.6922 58° Northeast 489 563 37,000  Level Kansas City Center
12:36PM 38.2972 -100.5272 58° Northeast 490 564 37,000  Level Kansas City Center
12:37PM 38.3650 -100.3869 58° Northeast 486 559 37,000  Level Kansas City Center
12:38PM 38.4328 -100.2458 58° Northeast 486 559 37,000  Level Kansas City Center
12:39PM 38.5125 -100.0803 58° Northeast 488 562 37,000  Level Kansas City Center
12:40PM 38.5808 -99.9403 58° Northeast 487 560 37,000  Level Kansas City Center
12:41PM 38.6597 -99.7747 59° Northeast 487 560 37,000  Level Kansas City Center
12:42PM 38.7258 -99.6336 59° Northeast 484 557 37,000  Level Kansas City Center
12:43PM 38.7922 -99.4958 58° Northeast 486 559 37,000  Level Kansas City Center
12:44PM 38.8778 -99.3136 59° Northeast 494 568 37,000  Level Kansas City Center
12:45PM 38.9503 -99.1603 59° Northeast 502 578 37,000  Level Kansas City Center
12:46PM 39.0219 -99.0067 59° Northeast 501 577 37,000  Level Kansas City Center
12:47PM 39.0933 -98.8522 59° Northeast 500 575 37,000  Level Kansas City Center
12:48PM 39.1650 -98.6989 59° Northeast 499 574 37,000  Level Kansas City Center
12:49PM 39.2383 -98.5372 60° Northeast 497 572 37,000  Level Kansas City Center
12:50PM 39.3100 -98.3783 60° Northeast 509 586 37,000  Level Kansas City Center
12:51PM 39.3931 -98.2003 59° Northeast 512 589 37,000  Level Kansas City Center
12:52PM 39.4614 -98.0492 60° Northeast 507 583 37,000  Level Kansas City Center
12:53PM 39.5392 -97.8744 60° Northeast 508 585 37,000  Level Kansas City Center
12:54PM 39.6089 -97.7194 60° Northeast 501 577 37,000  Level Kansas City Center
12:56PM 39.6922 -97.5339 60° Northeast 505 581 37,000  Level Minneapolis Center
12:57PM 39.7619 -97.3742 60° Northeast 504 580 37,000  Level Minneapolis Center
12:58PM 39.8303 -97.2197 60° Northeast 502 578 37,000  Level Minneapolis Center
12:59PM 39.9000 -97.0631 60° Northeast 500 575 37,000  Level Minneapolis Center
01:00PM 39.9664 -96.9092 61° Northeast 496 571 37,000  Level Minneapolis Center
01:01PM 40.0328 -96.7539 61° Northeast 493 567 37,000  Level Minneapolis Center
01:02PM 40.1136 -96.5681 60° Northeast 492 566 37,000  Level Minneapolis Center
01:03PM 40.1800 -96.4108 61° Northeast 493 567 37,000  Level Minneapolis Center
01:04PM 40.2472 -96.2553 60° Northeast 494 568 37,000  Level Minneapolis Center
01:05PM 40.3128 -96.0986 61° Northeast 494 568 37,000  Level Minneapolis Center
01:06PM 40.3797 -95.9433 60° Northeast 492 566 37,000  Level Minneapolis Center
01:07PM 40.4456 -95.7836 62° Northeast 497 572 37,000  Level Minneapolis Center
01:08PM 40.5108 -95.6289 61° Northeast 491 565 37,000  Level Minneapolis Center
01:09PM 40.5886 -95.4439 61° Northeast 485 558 37,000  Level Minneapolis Center
01:10PM 40.6531 -95.2883 61° Northeast 486 559 37,000  Level Minneapolis Center
01:11PM 40.7172 -95.1331 61° Northeast 485 558 37,000  Level Minneapolis Center
01:12PM 40.7794 -94.9781 62° Northeast 482 555 37,000  Level Minneapolis Center
01:13PM 40.8433 -94.8239 61° Northeast 480 552 37,000  Level Minneapolis Center
01:14PM 40.9058 -94.6678 62° Northeast 482 555 37,000  Level Minneapolis Center
01:15PM 40.9683 -94.5108 62° Northeast 481 554 37,000  Level Minneapolis Center
01:16PM 41.0319 -94.3517 62° Northeast 485 558 37,000  Level Minneapolis Center
01:17PM 41.0958 -94.1942 62° Northeast 487 560 37,000  Level Minneapolis Center
01:18PM 41.1703 -94.0058 62° Northeast 486 559 37,000  Level Minneapolis Center
01:19PM 41.2311 -93.8492 63° Northeast 484 557 37,000  Level Minneapolis Center
01:20PM 41.2933 -93.6933 62° Northeast 483 556 37,000  Level Minneapolis Center
01:21PM 41.3536 -93.5381 63° Northeast 480 552 37,000  Level Minneapolis Center
01:22PM 41.4142 -93.3836 62° Northeast 476 548 37,000  Level Minneapolis Center
01:23PM 41.4736 -93.2278 63° Northeast 474 545 37,000 -60 Level Minneapolis Center
01:24PM 41.5247 -93.0689 67° East 472 543 36,900 -720 Descending Minneapolis Center
01:25PM 41.5878 -92.8408 70° East 471 542 35,500 -960 Descending Minneapolis Center
01:27PM 41.6339 -92.6772 69° East 472 543 35,000 -300 Descending Minneapolis Center
01:27PM 41.6617 -92.5761 70° East 469 540 35,000  Level Chicago Center
01:28PM 41.7144 -92.3828 70° East 467 537 35,000  Level Chicago Center
01:29PM 41.7586 -92.2217 70° East 466 536 35,000  Level Chicago Center
01:30PM 41.8031 -92.0614 70° East 465 535 35,000  Level Chicago Center
01:31PM 41.8469 -91.8992 70° East 467 537 35,000  Level Chicago Center
01:32PM 41.8906 -91.7372 70° East 467 537 35,000  Level Chicago Center
01:33PM 41.9422 -91.5436 70° East 465 535 35,000  Level Chicago Center
01:34PM 41.9856 -91.3797 70° East 471 542 35,000  Level Chicago Center
01:36PM 42.0283 -91.2178 70° East 467 537 35,000  Level Chicago Center
01:37PM 42.0703 -91.0547 71° East 467 537 35,000 -120 Level Chicago Center
01:38PM 42.1125 -90.8925 71° East 465 535 34,800 -720 Descending Chicago Center
01:39PM 42.1606 -90.6981 72° East 462 532 33,600 -1,080 Descending Chicago Center
01:40PM 42.1692 -90.5303 86° East 460 529 32,700 -960 Descending Chicago Center
01:41PM 42.1697 -90.3647 90° East 451 519 31,700 -1,020 Descending Chicago Center
01:42PM 42.1700 -90.1992 90° East 447 514 30,600 -1,020 Descending Chicago Center
01:43PM 42.1700 -90.0319 90° East 449 517 29,600 -1,140 Descending Chicago Center
01:44PM 42.1700 -89.8542 90° East 450 518 28,300 -1,620 Descending Chicago Center
01:45PM 42.1725 -89.6633 89° East 439 505 26,300 -1,620 Descending Chicago Center
01:46PM 42.1811 -89.5072 86° East 421 484 25,000 -660 Descending Chicago Center
01:47PM 42.2000 -89.3497 81° East 425 489 25,000 -300 Level Chicago Center
01:48PM 42.2264 -89.1897 77° East 436 502 24,500 -1,440 Descending Chicago Center
01:49PM 42.2719 -89.0372 68° East 438 504 22,100 -2,640 Descending Chicago Center
01:50PM 42.3267 -88.8908 63° Northeast 439 505 19,100 -3,000 Descending Chicago Center
01:51PM 42.4064 -88.7397 54° Northeast 424 488 16,000 -2,580 Descending Chicago Center
01:52PM 42.4744 -88.6194 52° Northeast 406 467 13,800 -2,280 Descending Chicago Center
01:53PM 42.5425 -88.5125 49° Northeast 381 438 11,400 -1,740 Descending Chicago Center
01:54PM 42.6108 -88.4086 48° Northeast 370 426 10,300 -960 Descending Chicago Center
01:55PM 42.6814 -88.3283 40° Northeast 334 384 9,500 -1,200 Descending Chicago Center
01:56PM 42.7539 -88.2622 34° Northeast 320 368 7,900 -1,680 Descending Chicago Center
01:57PM 42.8467 -88.2164 20° North 306 352 6,100 -1,620 Descending Chicago Center
01:58PM 42.8850 -88.1369 57° Northeast 267 307 4,600 -1,800 Descending Chicago Center
01:59PM 42.9000 -88.0833 69° East 232 267 3,400 -1,560 Descending KMKE
02:00PM 42.9167 -88.0167 71° East 182 209 2,100 -960 Descending KMKE
02:01PM 42.9333 -87.9667 66° East 125 144 1,400 -720 Descending KMKE
02:03PM 42.9469 -87.8971 56° Northeast  Level Estimated
02:10PM 42.9469 -87.8971 56° Northeast  Level Estimated